TimeEST,TemperatureF,Dew PointF,Humidity,Sea Level PressureIn,VisibilityMPH,Wind Direction,Wind SpeedMPH,Gust SpeedMPH,PrecipitationIn,Events,Conditions,WindDirDegrees,DateUTC
12:15 AM,42.8,42.8,100,29.52,10.0,West,5.8,-,0.01,,Overcast,280,2014-01-03 05:15:00
12:35 AM,42.8,42.8,100,29.52,10.0,WNW,13.8,18.4,0.01,,Overcast,290,2014-01-03 05:35:00
12:55 AM,42.8,42.8,100,29.55,7.0,West,17.3,21.9,N/A,Rain,Light Rain,280,2014-01-03 05:55:00
1:15 AM,42.8,41.0,93,29.56,10.0,West,16.1,-,0.01,Rain,Light Rain,280,2014-01-03 06:15:00
1:35 AM,41.0,41.0,100,29.58,10.0,WNW,18.4,25.3,0.01,,Drizzle,290,2014-01-03 06:35:00
1:55 AM,41.0,39.2,93,29.59,10.0,WNW,16.1,27.6,N/A,,Light Drizzle,300,2014-01-03 06:55:00
2:15 AM,39.2,37.4,93,29.61,10.0,WNW,12.7,25.3,N/A,Rain,Light Rain,300,2014-01-03 07:15:00
2:35 AM,39.2,37.4,93,29.63,10.0,WNW,13.8,20.7,N/A,,Overcast,300,2014-01-03 07:35:00
2:55 AM,39.2,35.6,87,29.65,10.0,NW,15.0,23.0,N/A,,Overcast,310,2014-01-03 07:55:00
3:15 AM,39.2,33.8,81,29.67,10.0,NW,13.8,25.3,N/A,,Overcast,320,2014-01-03 08:15:00
3:35 AM,37.4,33.8,87,29.69,10.0,WNW,13.8,25.3,N/A,,Overcast,300,2014-01-03 08:35:00
3:55 AM,37.4,32.0,81,29.70,10.0,NW,16.1,21.9,N/A,,Overcast,310,2014-01-03 08:55:00
4:15 AM,37.4,30.2,75,29.72,10.0,NW,13.8,21.9,N/A,,Overcast,310,2014-01-03 09:15:00
4:35 AM,37.4,30.2,75,29.75,10.0,NW,13.8,33.4,N/A,,Overcast,310,2014-01-03 09:35:00
4:55 AM,37.4,30.2,75,29.77,10.0,NW,15.0,31.1,N/A,,Overcast,320,2014-01-03 09:55:00
5:15 AM,35.6,28.4,75,29.80,10.0,NW,17.3,28.8,N/A,,Overcast,310,2014-01-03 10:15:00
5:35 AM,35.6,28.4,75,29.83,10.0,NW,17.3,27.6,N/A,,Overcast,320,2014-01-03 10:35:00
5:55 AM,33.8,26.6,75,29.85,10.0,NNW,20.7,31.1,N/A,,Unknown,330,2014-01-03 10:55:00
5:56 AM,33.8,26.6,75,29.85,10.0,NNW,25.3,33.4,N/A,,Unknown,330,2014-01-03 10:56:00
6:15 AM,33.8,24.8,70,29.88,10.0,NW,16.1,36.8,N/A,,Overcast,320,2014-01-03 11:15:00
6:35 AM,32.0,23.0,69,29.91,10.0,NW,18.4,26.5,N/A,,Overcast,320,2014-01-03 11:35:00
6:55 AM,30.2,19.4,64,29.93,10.0,NW,18.4,27.6,N/A,,Overcast,320,2014-01-03 11:55:00
7:15 AM,30.2,15.8,55,29.97,10.0,NW,25.3,36.8,N/A,,Overcast,320,2014-01-03 12:15:00
7:35 AM,28.4,14.0,55,30.01,10.0,NW,18.4,31.1,N/A,,Mostly Cloudy,320,2014-01-03 12:35:00
7:55 AM,28.4,12.2,51,30.04,10.0,NNW,17.3,33.4,N/A,,Scattered Clouds,330,2014-01-03 12:55:00
8:15 AM,28.4,14.0,55,30.06,10.0,NNW,19.6,27.6,N/A,,Clear,330,2014-01-03 13:15:00
8:35 AM,26.6,12.2,55,30.08,10.0,NNW,16.1,26.5,N/A,,Scattered Clouds,330,2014-01-03 13:35:00
8:55 AM,26.6,12.2,55,30.11,10.0,NW,20.7,29.9,N/A,,Scattered Clouds,310,2014-01-03 13:55:00
9:15 AM,26.6,12.2,55,30.13,10.0,NW,17.3,32.2,N/A,,Scattered Clouds,310,2014-01-03 14:15:00
9:35 AM,26.6,12.2,55,30.15,10.0,NW,17.3,31.1,N/A,,Clear,310,2014-01-03 14:35:00
9:55 AM,26.6,12.2,55,30.17,10.0,NW,19.6,32.2,N/A,,Clear,320,2014-01-03 14:55:00
10:15 AM,26.6,12.2,55,30.18,10.0,NW,19.6,28.8,N/A,,Clear,310,2014-01-03 15:15:00
10:35 AM,26.6,10.4,51,30.19,10.0,NW,15.0,28.8,N/A,,Clear,310,2014-01-03 15:35:00
10:55 AM,28.4,10.4,47,30.20,10.0,NW,12.7,29.9,N/A,,Clear,320,2014-01-03 15:55:00
11:15 AM,28.4,10.4,47,30.19,10.0,NW,20.7,29.9,N/A,,Clear,320,2014-01-03 16:15:00
11:35 AM,28.4,12.2,51,30.20,10.0,NW,17.3,28.8,N/A,,Clear,320,2014-01-03 16:35:00
11:55 AM,28.4,12.2,51,30.21,10.0,NW,23.0,31.1,N/A,,Clear,310,2014-01-03 16:55:00
12:15 PM,28.4,10.4,47,30.21,10.0,NW,20.7,35.7,N/A,,Clear,320,2014-01-03 17:15:00
12:35 PM,30.2,10.4,44,30.22,10.0,NW,17.3,24.2,N/A,,Clear,320,2014-01-03 17:35:00
12:55 PM,30.2,8.6,40,30.22,10.0,NNW,21.9,31.1,N/A,,Clear,330,2014-01-03 17:55:00
1:15 PM,30.2,8.6,40,30.23,10.0,NW,19.6,26.5,N/A,,Clear,320,2014-01-03 18:15:00
1:35 PM,30.2,8.6,40,30.24,10.0,NNW,15.0,25.3,N/A,,Clear,330,2014-01-03 18:35:00
1:55 PM,30.2,8.6,40,30.26,10.0,NW,13.8,23.0,N/A,,Clear,320,2014-01-03 18:55:00
2:15 PM,30.2,8.6,40,30.27,10.0,NW,13.8,21.9,N/A,,Clear,310,2014-01-03 19:15:00
2:35 PM,30.2,6.8,37,30.29,10.0,NNW,15.0,23.0,N/A,,Clear,330,2014-01-03 19:35:00
2:55 PM,30.2,6.8,37,30.31,10.0,NNW,15.0,24.2,N/A,,Clear,330,2014-01-03 19:55:00
3:15 PM,30.2,6.8,37,30.33,10.0,NNW,11.5,20.7,N/A,,Clear,330,2014-01-03 20:15:00
3:35 PM,30.2,6.8,37,30.34,10.0,NW,13.8,19.6,N/A,,Clear,320,2014-01-03 20:35:00
3:55 PM,30.2,6.8,37,30.34,10.0,NNW,10.4,18.4,N/A,,Clear,330,2014-01-03 20:55:00
4:15 PM,30.2,5.0,34,30.35,10.0,NNW,9.2,18.4,N/A,,Clear,330,2014-01-03 21:15:00
4:35 PM,30.2,5.0,34,30.36,10.0,NW,11.5,18.4,N/A,,Clear,320,2014-01-03 21:35:00
4:55 PM,28.4,6.8,40,30.36,7.0,NNW,9.2,17.3,N/A,,Clear,340,2014-01-03 21:55:00
5:15 PM,28.4,6.8,40,30.37,10.0,NW,6.9,-,N/A,,Clear,320,2014-01-03 22:15:00
5:35 PM,28.4,5.0,37,30.39,10.0,NW,10.4,16.1,N/A,,Clear,310,2014-01-03 22:35:00
5:55 PM,28.4,5.0,37,30.40,10.0,NW,6.9,-,N/A,,Clear,320,2014-01-03 22:55:00
6:15 PM,28.4,6.8,40,30.41,10.0,NNW,5.8,-,N/A,,Clear,340,2014-01-03 23:15:00
6:35 PM,28.4,5.0,37,30.42,10.0,NNW,5.8,-,N/A,,Clear,340,2014-01-03 23:35:00
6:55 PM,26.6,5.0,40,30.44,10.0,North,4.6,-,N/A,,Clear,350,2014-01-03 23:55:00
7:15 PM,26.6,5.0,40,30.45,10.0,NNW,4.6,-,N/A,,Clear,340,2014-01-04 00:15:00
7:35 PM,26.6,5.0,40,30.45,10.0,NNW,5.8,-,N/A,,Clear,340,2014-01-04 00:35:00
7:55 PM,26.6,3.2,37,30.46,10.0,NNW,9.2,-,N/A,,Clear,340,2014-01-04 00:55:00
8:15 PM,26.6,1.4,34,30.48,10.0,North,4.6,-,N/A,,Clear,350,2014-01-04 01:15:00
8:35 PM,26.6,1.4,34,30.48,10.0,NNW,8.1,-,N/A,,Clear,330,2014-01-04 01:35:00
8:55 PM,26.6,1.4,34,30.49,10.0,NNW,8.1,-,N/A,,Clear,330,2014-01-04 01:55:00
9:15 PM,26.6,3.2,37,30.49,10.0,North,6.9,-,N/A,,Clear,360,2014-01-04 02:15:00
9:35 PM,24.8,3.2,40,30.50,10.0,NNW,6.9,-,N/A,,Clear,340,2014-01-04 02:35:00
9:55 PM,24.8,3.2,40,30.50,10.0,NNW,5.8,-,N/A,,Clear,340,2014-01-04 02:55:00
10:15 PM,24.8,5.0,43,30.50,10.0,NNW,5.8,-,N/A,,Clear,330,2014-01-04 03:15:00
10:35 PM,24.8,6.8,46,30.50,10.0,Calm,Calm,-,N/A,,Clear,0,2014-01-04 03:35:00
10:55 PM,24.8,6.8,46,30.50,10.0,Calm,Calm,-,N/A,,Clear,0,2014-01-04 03:55:00
11:15 PM,24.8,8.6,50,30.50,10.0,Calm,Calm,-,N/A,,Clear,0,2014-01-04 04:15:00
11:35 PM,23.0,8.6,54,30.50,10.0,NW,3.5,-,N/A,,Clear,320,2014-01-04 04:35:00
11:55 PM,23.0,10.4,59,30.50,10.0,NW,3.5,-,N/A,,Clear,320,2014-01-04 04:55:00